User: anonymous   Login
Location: Unspecified
(0.0000°N, 0.0000°E)
Time: 17:14:56
(UTC+00:00)
Language:

Explorer 25 - Orbit

View from above orbital plane
View from above orbital plane
View from above satellite
View from above satellite

Ground track
Ground track

The orbit data is extracted from the following two-line orbital elements,

1   932U 64076B   19016.24022362 -.00000044  00000-0 -16216-4 0  9995
2   932  81.3442 295.4388 1131532 270.3214  76.8558 12.63954249476249
Epoch (UTC): 16 January 2019 05:45:55
Eccentricity: 0.1131532
inclination: 81.3442°
perigee height: 526 km
apogee height: 2287 km
right ascension of ascending node: 295.4388°
argument of perigee: 270.3214°
revolutions per day: 12.63954249
mean anomaly at epoch: 76.8558°
orbit number at epoch: 47624

The dashed part of the orbit path shows where the satellite is in the earth's shadow,  

DLR